Haslingden, United Kingdom
Current Conditions -  °F | °C
As of 6:20 PM on Thursday 23 Oct 2014 (Local Time) from EGNO Reporting Station
Broken Clouds Broken Clouds  
Wind Chill: 59°   Ceiling: 2800
Heat Index: 59°   Visibility: 6mi
Dew Point: 54°   Wind: 13mph
Humidity: 82%   Direction: 230°SW
Pressure: 29.85"   Gusts: NA
Location:  53.7°N, 2.32°W
Report Text: EGNO 231720Z 23011KT 9999 FEW016 BKN028 15/12 Q1011
Loading
Personal Weather Stations






























Interactive Weather Map
Tropical Storm Tracking
New forecast layout! Learn more

10-Day Weather Forecast

Advertisements
Track Severe Weather on mobile